Location: Newark
(48.3983°N, 16.0611°E)
Time: 16:53:55
(UTC+00:00)

ISS - Pass Details

Date: 23 January 2020
Orbit: 416 x 422 km, 51.6° (Epoch: 17 February)

Event Time Altitude Azimuth Distance (km) Brightness Sun altitude
Rises 16:32:46 0° 209° (SSW) 2,366 0.9 -8.9°
Reaches altitude 10° 16:35:08 10° 195° (SSW) 1,504 -0.5 -9.3°
Maximum altitude 16:37:51 23° 141° (SE) 957 -2.1 -9.7°
Enters shadow 16:40:01 13° 94° (E) 1,331 -1.8 -10.0°
